Location: Archemont
(49.1579°N, 1.7598°E)
Time: 14:51:01
(UTC+00:00)

Transit 2A - Pass Details

Date: 21 April 2024
Orbit: 594 x 958 km, 66.7° (Epoch: 28 May)

Event Time Altitude Azimuth Distance (km) Brightness Sun altitude
Rises 11:09:47 0° 319° (NW) 3,087 8.8 52.0°
Reaches altitude 10° 11:13:34 10° 349° (N) 2,256 8.2 52.1°
Maximum altitude 11:15:44 12° 14° (NNE) 2,137 8.1 52.2°
Drops below altitude 10° 11:17:59 10° 39° (NE) 2,359 8.4 52.3°
Sets 11:22:09 0° 68° (ENE) 3,387 9.3 52.5°
